User: anonymous   Login
Location: North Runcton
(52.7000°N, 0.4333°E)
Time: 12:05:58
(UTC+00:00)
Language:

Cosmos 1125 Rocket - Orbit

View from above orbital plane
View from above orbital plane
View from above satellite
View from above satellite

Ground track
Ground track

The orbit data is extracted from the following two-line orbital elements,

1 11511U 79078B   25189.03886894  .00000144  00000-0  56030-4 0  9998
2 11511  74.0371 303.3179 0015454 191.7042 168.3755 14.38106911401365
Epoch (UTC): 08 July 2025 00:55:58
Eccentricity: 0.0015454
inclination: 74.0371°
perigee height: 754 km
apogee height: 776 km
right ascension of ascending node: 303.3179°
argument of perigee: 191.7042°
revolutions per day: 14.38106911
mean anomaly at epoch: 168.3755°
orbit number at epoch: 40136

The dashed part of the orbit path shows where the satellite is in the earth's shadow,  

DLR